Location: *
(45.1961°N, 1.9694°E)
Time: 11:58:38
(UTC+00:00)

Shenzhou-11 Module - Pass Details

Date: 25 August 2019
Orbit: 317 x 328 km, 42.8° (Epoch: 20 September)

Event Time Altitude Azimuth Distance (km) Brightness Sun altitude
Rises 19:41:27 0° 264° (W) 2,077 6.8 -10.4°
Reaches altitude 10° 19:43:28 10° 259° (W) 1,240 5.5 -10.8°
Maximum altitude 19:46:11 51° 182° (S) 416 2.0 -11.2°
Enters shadow 19:47:43 22° 113° (ESE) 778 3.0 -11.4°
